�������l�o���
Date,Time,MP-1(��Sv/h),MP-2(��Sv/h),MP-3(��Sv/h),MP-4(��Sv/h),MP-5(��Sv/h),MP-6(��Sv/h),MP-7(��Sv/h),MP-8(��Sv/h),����,����(m/s),���J
2023/09/05,00:00,0.514,0.775,0.479,0.970,0.667,0.314,0.567,0.526,��,2.3,�L
2023/09/05,00:10,0.514,0.774,0.481,0.966,0.667,0.313,0.568,0.528,��쐼,2.5,�L
2023/09/05,00:20,0.511,0.774,0.478,0.967,0.665,0.313,0.567,0.525,��쐼,2.6,�L
2023/09/05,00:30,0.511,0.771,0.477,0.965,0.668,0.313,0.567,0.526,��쐼,2.8,�L
2023/09/05,00:40,0.512,0.772,0.479,0.969,0.665,0.315,0.565,0.526,��쐼,3.0,�L
2023/09/05,00:50,0.510,0.773,0.479,0.966,0.666,0.312,0.566,0.526,�쐼,3.2,�L
2023/09/05,01:00,0.512,0.769,0.476,0.963,0.664,0.312,0.562,0.524,��쐼,3.4,�L
2023/09/05,01:10,0.509,0.767,0.476,0.962,0.659,0.311,0.562,0.522,��쐼,3.9,�L
2023/09/05,01:20,0.507,0.764,0.474,0.959,0.656,0.310,0.560,0.522,��쐼,3.4,�L
2023/09/05,01:30,0.504,0.763,0.473,0.955,0.656,0.310,0.560,0.522,��쓌,2.3,�L
2023/09/05,01:40,0.506,0.764,0.474,0.956,0.661,0.309,0.561,0.521,��쓌,2.2,�L
2023/09/05,01:50,0.505,0.763,0.476,0.958,0.659,0.309,0.562,0.523,��쐼,1.9,��
2023/09/05,02:00,0.508,0.765,0.475,0.958,0.662,0.310,0.562,0.523,��,2.3,��
2023/09/05,02:10,0.508,0.765,0.474,0.961,0.663,0.310,0.562,0.524,��쓌,3.1,��
2023/09/05,02:20,0.508,0.767,0.476,0.959,0.663,0.311,0.564,0.523,��,3.3,��
2023/09/05,02:30,0.510,0.770,0.478,0.961,0.665,0.310,0.564,0.523,��쓌,1.1,��
2023/09/05,02:40,0.512,0.768,0.478,0.960,0.664,0.311,0.563,0.522,��,2.5,��
2023/09/05,02:50,0.511,0.771,0.477,0.961,0.666,0.312,0.563,0.524,��쓌,3.4,��
2023/09/05,03:00,0.512,0.770,0.477,0.962,0.665,0.313,0.563,0.525,��,2.3,��
2023/09/05,03:10,0.513,0.772,0.477,0.962,0.667,0.313,0.563,0.525,��,2.8,��
2023/09/05,03:20,0.511,0.773,0.477,0.964,0.667,0.313,0.564,0.524,��,3.4,��
2023/09/05,03:30,0.512,0.771,0.477,0.962,0.668,0.313,0.564,0.526,��,3.2,��
2023/09/05,03:40,0.511,0.770,0.478,0.964,0.669,0.313,0.564,0.524,��,2.2,��
2023/09/05,03:50,0.512,0.772,0.479,0.964,0.668,0.314,0.566,0.526,�쐼,2.0,��
2023/09/05,04:00,0.514,0.773,0.478,0.965,0.668,0.313,0.566,0.525,�쐼,2.6,��
2023/09/05,04:10,0.511,0.772,0.478,0.966,0.669,0.314,0.564,0.524,�쐼,2.0,��
2023/09/05,04:20,0.513,0.773,0.480,0.965,0.670,0.313,0.566,0.527,��,1.5,��
2023/09/05,04:30,0.512,0.772,0.478,0.964,0.668,0.313,0.564,0.527,��쐼,2.0,��
2023/09/05,04:40,0.513,0.774,0.479,0.966,0.671,0.314,0.564,0.525,�쐼,1.4,��
2023/09/05,04:50,0.514,0.776,0.480,0.967,0.672,0.314,0.565,0.525,��,0.9,��
2023/09/05,05:00,0.514,0.775,0.482,0.964,0.673,0.316,0.565,0.528,���k��,1.2,��
2023/09/05,05:10,0.515,0.779,0.482,0.965,0.672,0.314,0.565,0.527,�k��,2.3,��
2023/09/05,05:20,0.515,0.777,0.481,0.969,0.673,0.316,0.566,0.528,���k��,1.7,��
2023/09/05,05:30,0.516,0.777,0.482,0.968,0.674,0.315,0.567,0.528,���k��,1.5,��
2023/09/05,05:40,0.517,0.777,0.483,0.968,0.672,0.316,0.567,0.527,���k��,2.6,��
2023/09/05,05:50,0.516,0.779,0.481,0.970,0.673,0.318,0.566,0.527,��,1.7,��
2023/09/05,06:00,0.516,0.777,0.483,0.966,0.674,0.316,0.567,0.526,���쐼,1.2,��
2023/09/05,06:10,0.517,0.777,0.483,0.968,0.675,0.316,0.566,0.527,�쐼,1.4,��
2023/09/05,06:20,0.516,0.780,0.481,0.968,0.674,0.315,0.568,0.527,�쐼,1.1,��
2023/09/05,06:30,0.516,0.778,0.480,0.968,0.674,0.315,0.567,0.527,��쐼,0.9,��
2023/09/05,06:40,0.517,0.777,0.481,0.968,0.673,0.316,0.565,0.527,��쐼,0.6,��
2023/09/05,06:50,0.517,0.779,0.481,0.966,0.674,0.314,0.567,0.526,��쓌,0.6,��
2023/09/05,07:00,0.518,0.780,0.482,0.969,0.672,0.316,0.567,0.526,��쓌,1.1,��
2023/09/05,07:10,0.519,0.779,0.483,0.967,0.675,0.317,0.566,0.528,��,1.7,��
2023/09/05,07:20,0.518,0.780,0.482,0.967,0.676,0.316,0.566,0.527,��,2.3,��
2023/09/05,07:30,0.518,0.779,0.483,0.968,0.675,0.315,0.567,0.527,��쓌,1.7,��
2023/09/05,07:40,0.517,0.779,0.483,0.968,0.676,0.317,0.566,0.528,��,1.4,��
2023/09/05,07:50,0.517,0.780,0.485,0.969,0.678,0.317,0.566,0.527,�쐼,1.1,��
2023/09/05,08:00,0.520,0.780,0.484,0.968,0.678,0.316,0.567,0.527,��쓌,0.8,��
2023/09/05,08:10,0.518,0.781,0.482,0.970,0.678,0.315,0.567,0.526,-,CALM,��
2023/09/05,08:20,0.519,0.779,0.482,0.970,0.677,0.316,0.567,0.526,�쓌,0.8,��
2023/09/05,08:30,0.518,0.780,0.482,0.970,0.678,0.316,0.566,0.525,�쓌,1.2,��
2023/09/05,08:40,0.517,0.780,0.486,0.968,0.676,0.318,0.566,0.523,�쓌,1.5,��
2023/09/05,08:50,0.520,0.779,0.482,0.969,0.678,0.317,0.567,0.527,�쓌,2.2,��
2023/09/05,09:00,0.519,0.781,0.482,0.969,0.677,0.315,0.567,0.526,�쓌,1.4,��
2023/09/05,09:10,0.519,0.782,0.483,0.969,0.679,0.314,0.567,0.526,�쓌,2.0,��
2023/09/05,09:20,0.519,0.782,0.483,0.968,0.679,0.315,0.568,0.526,�쓌,1.7,��
2023/09/05,09:30,0.520,0.781,0.484,0.969,0.682,0.314,0.568,0.526,���쓌,1.5,��
2023/09/05,09:40,0.520,0.783,0.485,0.969,0.681,0.315,0.567,-,���k��,1.2,��
2023/09/05,09:50,0.519,0.782,0.486,0.970,0.680,0.317,0.569,-,��,1.5,��
2023/09/05,10:00,0.521,0.783,0.485,0.969,0.681,0.317,0.568,-,���쓌,2.0,��
2023/09/05,10:10,0.521,0.785,0.485,0.973,0.683,0.317,0.568,-,���쓌,2.3,��
2023/09/05,10:20,0.522,0.784,0.484,0.969,0.684,0.316,0.567,-,���쓌,3.2,��
2023/09/05,10:30,0.520,0.785,0.485,0.968,0.683,0.318,0.569,-,�쓌,2.9,��
2023/09/05,10:40,0.520,0.784,0.485,0.972,0.683,0.315,0.570,-,�쓌,2.0,��
2023/09/05,10:50,0.520,0.787,0.485,0.970,0.684,0.318,0.569,-,�쓌,2.3,��
2023/09/05,11:00,0.520,0.786,0.485,0.971,0.685,0.317,0.570,-,�쓌,2.0,��
2023/09/05,11:10,0.520,0.784,0.487,0.970,0.684,0.317,0.570,-,�쓌,2.6,��
2023/09/05,11:20,0.523,0.785,0.485,0.971,0.684,0.318,0.570,-,��쓌,3.5,��
2023/09/05,11:30,0.519,0.787,0.486,0.973,0.685,0.317,0.570,0.528,�쓌,2.3,��
2023/09/05,11:40,0.522,0.788,0.486,0.974,0.686,0.316,0.569,0.527,�쓌,3.2,��
2023/09/05,11:50,0.521,0.786,0.487,0.972,0.688,0.317,0.569,0.528,�쓌,2.2,��
2023/09/05,12:00,0.520,0.787,0.487,0.972,0.685,0.316,0.569,0.528,�쓌,1.7,��
2023/09/05,12:10,0.523,0.790,0.488,0.974,0.688,0.317,0.569,0.527,�쓌,1.7,�L
2023/09/05,12:20,0.522,0.788,0.486,0.973,0.688,0.316,0.569,0.529,�쓌,2.0,�L
2023/09/05,12:30,0.523,0.787,0.487,0.974,0.688,0.318,0.570,0.528,��,1.2,��
2023/09/05,12:40,0.523,0.791,0.487,0.974,0.687,0.315,0.571,0.530,��,1.7,��
2023/09/05,12:50,0.522,0.787,0.488,0.974,0.690,0.317,0.570,0.528,���쓌,1.2,��
2023/09/05,13:00,0.523,0.788,0.488,0.972,0.688,0.318,0.571,0.529,���쓌,1.1,��
2023/09/05,13:10,0.523,0.786,0.489,0.972,0.687,0.317,0.570,0.529,��,1.7,��
2023/09/05,13:20,0.523,0.789,0.489,0.974,0.689,0.317,0.570,0.528,��,1.7,��
2023/09/05,13:30,0.523,0.791,0.488,0.974,0.690,0.317,0.572,0.529,��,2.2,��
2023/09/05,13:40,0.521,0.787,0.488,0.975,0.690,0.317,0.571,0.531,��,1.7,��
2023/09/05,13:50,0.522,0.788,0.487,0.975,0.690,0.317,0.570,0.528,���쓌,2.0,��
2023/09/05,14:00,0.526,0.787,0.488,0.975,0.688,0.319,0.571,0.530,��쓌,1.7,��
2023/09/05,14:10,0.522,0.789,0.489,0.974,0.689,0.317,0.572,0.529,�쓌,2.0,��
2023/09/05,14:20,0.523,0.789,0.487,0.977,0.689,0.317,0.571,0.529,��쓌,3.0,��
2023/09/05,14:30,0.523,0.790,0.488,0.978,0.690,0.317,0.571,0.528,��쓌,3.0,��
2023/09/05,14:40,0.524,0.790,0.490,0.975,0.690,0.317,0.572,0.529,��쓌,3.6,��
2023/09/05,14:50,0.523,0.789,0.488,0.976,0.690,0.317,0.573,0.529,��쓌,2.6,��
2023/09/05,15:00,0.524,0.790,0.489,0.976,0.691,0.317,0.572,0.530,��쓌,2.0,��
2023/09/05,15:10,0.524,0.790,0.488,0.977,0.690,0.318,0.572,0.528,��쓌,1.7,��
2023/09/05,15:20,0.524,0.790,0.488,0.977,0.690,0.319,0.571,0.529,��쓌,3.1,��
2023/09/05,15:30,0.523,0.790,0.488,0.974,0.693,0.316,0.573,0.530,��쓌,2.6,��
2023/09/05,15:40,0.524,0.792,0.490,0.973,0.693,0.318,0.572,0.529,��쓌,2.9,��
2023/09/05,15:50,0.525,0.790,0.490,0.975,0.692,0.317,0.572,0.529,��쓌,2.2,��
2023/09/05,16:00,0.523,0.794,0.491,0.977,0.692,0.317,0.572,0.529,��,2.6,��
2023/09/05,16:10,0.523,0.791,0.488,0.977,0.691,0.318,0.572,0.528,��,2.3,��
2023/09/05,16:20,0.525,0.791,0.488,0.974,0.693,0.319,0.572,0.529,��,3.4,��
2023/09/05,16:30,0.525,0.791,0.490,0.977,0.693,0.318,0.571,0.531,��,3.3,��
2023/09/05,16:40,0.525,0.792,0.489,0.980,0.693,0.318,0.572,0.528,��쐼,2.0,��
2023/09/05,16:50,0.522,0.791,0.489,0.976,0.692,0.318,0.572,0.528,��쓌,2.0,��
2023/09/05,17:00,0.523,0.792,0.489,0.974,0.692,0.318,0.571,0.529,��,1.2,��
2023/09/05,17:10,0.524,0.794,0.490,0.977,0.693,0.319,0.571,0.530,��,0.9,��
2023/09/05,17:20,0.524,0.792,0.489,0.977,0.694,0.318,0.570,0.528,��쐼,1.5,�L
2023/09/05,17:30,0.524,0.793,0.490,0.976,0.693,0.318,0.569,0.528,���쐼,1.7,�L
2023/09/05,17:40,0.521,0.781,0.485,0.975,0.685,0.319,0.569,0.527,���k��,4.2,�L
2023/09/05,17:50,0.519,0.777,0.485,0.969,0.682,0.317,0.567,0.527,�k�k��,2.3,�L
2023/09/05,18:00,0.519,0.776,0.485,0.970,0.682,0.319,0.568,0.525,�k�k��,2.6,�L
2023/09/05,18:10,0.518,0.777,0.482,0.969,0.682,0.319,0.566,0.526,�k�k��,3.1,�L
2023/09/05,18:20,0.519,0.777,0.483,0.966,0.683,0.319,0.567,0.527,�k�k��,3.7,�L
2023/09/05,18:30,0.518,0.779,0.483,0.968,0.684,0.318,0.567,0.527,�k�k��,4.2,�L
2023/09/05,18:40,0.517,0.779,0.484,0.969,0.682,0.318,0.566,0.526,�k�k��,5.3,�L
2023/09/05,18:50,0.519,0.778,0.481,0.971,0.683,0.317,0.567,0.527,�k�k��,5.2,�L
2023/09/05,19:00,0.515,0.777,0.484,0.967,0.682,0.316,0.566,0.524,�k��,4.3,�L
2023/09/05,19:10,0.515,0.776,0.483,0.969,0.683,0.316,0.564,0.526,�k��,5.2,�L
2023/09/05,19:20,0.515,0.776,0.481,0.971,0.683,0.318,0.566,0.525,�k��,5.7,�L
2023/09/05,19:30,0.512,0.776,0.483,0.969,0.684,0.316,0.566,0.525,�k��,4.2,�L
2023/09/05,19:40,0.514,0.776,0.483,0.969,0.683,0.316,0.566,0.526,�k�k��,2.8,��
2023/09/05,19:50,0.515,0.776,0.482,0.968,0.682,0.318,0.565,0.526,�k��,3.6,��
2023/09/05,20:00,0.514,0.776,0.482,0.969,0.683,0.317,0.566,0.525,�k��,4.0,��
2023/09/05,20:10,0.514,0.774,0.482,0.970,0.683,0.316,0.566,0.525,�k��,4.5,��
2023/09/05,20:20,0.516,0.776,0.481,0.968,0.682,0.318,0.567,0.525,�k�k��,4.4,��
2023/09/05,20:30,0.515,0.778,0.482,0.971,0.684,0.317,0.567,0.526,�k�k��,3.6,��
2023/09/05,20:40,0.514,0.776,0.483,0.970,0.684,0.318,0.566,0.527,�k�k��,3.0,��
2023/09/05,20:50,0.515,0.778,0.482,0.970,0.686,0.317,0.567,0.526,�k�k��,2.8,��
2023/09/05,21:00,0.515,0.777,0.481,0.970,0.684,0.319,0.566,0.527,�k�k��,3.0,��
2023/09/05,21:10,0.515,0.777,0.482,0.970,0.685,0.318,0.567,0.527,�k��,2.6,��
2023/09/05,21:20,0.516,0.777,0.482,0.968,0.684,0.317,0.567,0.526,�k��,2.6,��
2023/09/05,21:30,0.516,0.777,0.482,0.972,0.683,0.318,0.567,0.527,�k��,2.6,��
2023/09/05,21:40,0.515,0.778,0.481,0.969,0.685,0.317,0.568,0.528,�k��,3.4,��
2023/09/05,21:50,0.514,0.778,0.482,0.970,0.685,0.319,0.566,0.526,�k��,3.2,��
2023/09/05,22:00,0.515,0.779,0.482,0.971,0.684,0.319,0.567,0.527,�k��,2.5,�L
2023/09/05,22:10,0.515,0.779,0.483,0.971,0.685,0.316,0.568,0.526,�k��,2.2,�L
2023/09/05,22:20,0.515,0.777,0.482,0.971,0.685,0.317,0.567,0.528,�k�k��,3.0,��
2023/09/05,22:30,0.516,0.777,0.483,0.973,0.685,0.317,0.567,0.527,�k��,3.5,��
2023/09/05,22:40,0.517,0.776,0.483,0.971,0.686,0.318,0.568,0.528,�k��,3.5,��
2023/09/05,22:50,0.515,0.778,0.483,0.971,0.685,0.317,0.568,0.527,�k��,3.0,��
2023/09/05,23:00,0.514,0.778,0.483,0.973,0.685,0.318,0.567,0.528,�k��,2.9,��
2023/09/05,23:10,0.516,0.778,0.483,0.971,0.685,0.319,0.567,0.527,�k�k��,2.0,��
2023/09/05,23:20,0.515,0.780,0.483,0.970,0.686,0.318,0.567,0.526,�k�k��,2.6,�L
2023/09/05,23:30,0.516,0.778,0.483,0.972,0.685,0.318,0.568,0.528,�k�k��,4.0,�L
2023/09/05,23:40,0.517,0.780,0.484,0.971,0.686,0.319,0.569,0.527,�k,4.9,�L
2023/09/05,23:50,0.519,0.782,0.486,0.973,0.688,0.318,0.569,0.530,�k�k��,5.2,�L
